[[{"header":{"parameterUnit":"m.s-1","parameterCategory":1,"la1":30.2991,"la2":30.254,"lo1":-89.0895,"lo2":-89.0444,"dx":0.0017,"dy":0.0017,"nx":28,"ny":28,"refTime":"2023-01-10T15:00:00:Z","depth":0,"parameterNumber":2,"parameterNumberName":"U-component_of_WINDS"},"data":[0,0,0,0,0,0,0,0,0,0,0,0,0,0,0,0,0,0,0,0,0,0,0,0,0,0,0,0,0,0,0,0,0,0,0,0,0,0,0,0,0,0,0,0,0,0,0,0,0,0,0,0,0,0,0,0,0,0,1.0019,1.0019,0,1.0067,1.0067,1.0068,1.0071,1.007,1.007,1.0069,1.012,1.0122,1.0124,0,0,0,0,0,0,0,0,0,0,0,0,0,0.9934,0.9935,1.0019,1.0019,1.002,1.0066,1.0067,1.0068,1.0071,1.007,1.0069,1.0069,1.012,1.0122,1.0124,0,0,0,0,0,0,0,0,0,0,0,0,0,0.9975,0.9936,1.0018,1.0027,1.0028,1.0066,1.0067,1.0068,1.0071,1.007,1.0069,1.0069,1.0119,1.0122,1.0124,1.0158,0,0,1.0133,1.0134,0,0,0,0,0,0,0,0,0.9973,0.9978,1.0025,1.0026,1.0028,1.0062,1.0056,1.0098,1.0071,1.0055,1.0069,1.0068,1.0102,1.0106,1.0117,1.0161,1.0163,1.0133,1.0135,1.0136,1.0137,0,0,0,0,0,0,0,0.997,0.9976,1.0038,1.0026,1.0027,1.003,1.0035,1.0064,1.0082,1.0056,1.0056,1.0062,1.0102,1.0114,1.0118,1.0164,1.0133,1.0136,1.0137,1.0139,1.0242,1.0243,0,0,0,0,0,0,0.9965,0.9974,1.0036,1.0039,0.9998,1.0032,1.0037,1.0052,1.0082,1.0086,1.0063,1.0062,1.011,1.0115,1.012,1.0164,1.0136,1.0139,1.014,1.0241,1.0242,1.0243,0,0,0,0,0,0,0.9963,0.997,1.0034,1.0007,1.0015,1.0034,1.005,1.0053,1.0065,1.0087,1.009,1.0071,1.0109,1.0116,1.0149,1.0166,1.014,1.0143,1.024,1.0241,1.0243,1.0251,0,0,0,0,0,0,0.9961,0.997,0.9981,1.0007,1.0016,1.0062,1.0051,1.0055,1.0069,1.0069,1.0096,1.0099,1.0109,1.0145,1.0152,1.0169,1.0145,1.0238,1.024,1.0242,1.0249,1.0252,1.0255,0,0,0,0,0,0.9957,0.9981,0.9982,0.999,1.0031,1.0063,1.0068,1.0078,1.0071,1.0084,1.0099,1.0098,1.0162,1.0149,1.0156,1.0174,1.0237,1.024,1.0242,1.0248,1.0252,1.0255,0,0,0,0,0,0,0.9957,0.9985,0.9986,1.0018,1.0038,1.0063,1.0079,1.0082,1.0104,1.0103,1.0115,1.0121,1.0155,1.0168,1.0152,1.0211,1.0199,1.0203,1.0201,1.0205,1.0208,1.0205,1.0147,0,0,0,0,0,0.9961,0.9983,1.0006,1.0033,1.0043,1.006,1.0074,1.008,1.0101,1.011,1.0127,1.0148,1.0174,1.019,1.0214,1.0251,1.0259,1.0268,1.0271,1.0273,1.0277,1.0301,1.0306,1.0251,1.0251,1.0251,0,0,0.9969,0.9987,1.0,1.0034,1.005,1.0074,1.0067,1.0092,1.0111,1.0114,1.0147,1.016,1.0185,1.0222,1.0239,1.0234,1.0294,1.0276,1.0278,1.028,1.0304,1.0309,1.0313,1.0253,1.0252,1.0252,0,0,0.9997,1.0011,1.0037,1.0053,1.0078,1.009,1.0096,1.0121,1.013,1.0164,1.0167,1.0191,1.0233,1.0252,1.0267,1.0305,1.0307,1.0312,1.0329,1.0352,1.0356,1.036,1.0376,1.0382,1.0316,1.0316,1.0316,0,1.0004,1.004,1.0049,1.0076,1.0092,1.0096,1.0123,1.0139,1.017,1.0182,1.0176,1.0232,1.0248,1.0291,1.03,1.0311,1.0321,1.031,1.0355,1.0359,1.0363,1.0378,1.0384,1.0317,1.0316,1.0316,1.0316,0,1.0049,1.0074,1.0091,1.0122,1.014,1.0167,1.0182,1.02,1.0205,1.0218,1.0254,1.0275,1.0305,1.0315,1.032,1.0359,1.0356,1.0352,1.0341,1.0368,1.0383,1.0389,1.0318,1.0317,1.0317,1.0317,0,0,1.0076,1.0114,1.0121,1.0136,1.0165,1.0186,1.0214,1.0243,1.0259,1.0281,1.0306,1.0344,1.0341,1.0359,1.0366,1.0386,1.0419,1.0381,1.0381,1.0389,1.0467,1.0471,1.0477,1.042,1.0421,1.0422,1.0466,0,1.0108,1.0157,1.0169,1.0212,1.0237,1.0243,1.0268,1.0289,1.0302,1.0327,1.0342,1.0369,1.0362,1.0373,1.0393,1.0411,1.0435,1.0407,1.0446,1.0447,1.0441,1.0485,1.0488,1.0528,1.0471,1.0472,1.0473,0,1.0152,1.0176,1.0222,1.0251,1.0262,1.0284,1.0313,1.0336,1.0362,1.037,1.0391,1.0397,1.0429,1.0416,1.0462,1.0443,1.046,1.0471,1.0473,1.0478,1.0463,1.0493,1.0541,1.0548,1.0482,1.0481,1.048,0,1.017,1.0214,1.0248,1.0261,1.0295,1.0311,1.0326,1.0351,1.0369,1.0395,1.0408,1.0437,1.0454,1.0478,1.0493,1.0481,1.0538,1.0526,1.0548,1.0548,1.0561,1.056,1.0614,1.0569,1.0569,1.0568,1.0568,0,1.0206,1.0234,1.0258,1.0278,1.0312,1.0325,1.0358,1.0373,1.0396,1.0422,1.0428,1.0452,1.047,1.0498,1.051,1.0547,1.0554,1.0564,1.0567,1.0564,1.0563,1.0576,1.0575,1.057,1.057,1.0569,1.0569,0,1.0232,1.0248,1.0286,1.0316,1.0324,1.0348,1.0374,1.0396,1.041,1.0443,1.0451,1.0474,1.0507,1.0524,1.0565,1.0573,1.0617,1.0617,1.0608,1.061,1.0632,1.0631,1.0698,1.0708,1.0654,1.0655,1.0655,0,1.0254,1.0277,1.0309,1.0327,1.0343,1.037,1.039,1.0405,1.0425,1.0458,1.0476,1.051,1.0537,1.059,1.0611,1.0643,1.0646,1.0668,1.0651,1.0649,1.065,1.0649,1.0653,1.0671,1.0671,1.0672,1.0672,0,1.0293,1.0301,1.0328,1.0359,1.0381,1.0406,1.0431,1.0445,1.0465,1.0488,1.0521,1.0543,1.0586,1.062,1.0654,1.0672,1.0676,1.0677,1.0685,1.0683,1.0677,1.0683,1.0618,1.0676,1.0675,1.0675,1.0675,1.0675,1.0319,1.0341,1.0368,1.0399,1.0419,1.0443,1.0466,1.0484,1.0512,1.0549,1.0556,1.0593,1.0622,1.0669,1.0687,1.0717,1.0713,1.0723,1.0726,1.0729,1.0731,1.0671,1.0723,1.0723,1.0723,1.0723,1.0723,0,1.036,1.0379,1.0407,1.0442,1.0467,1.0469,1.0498,1.0519,1.0551,1.0577,1.0605,1.0646,1.068,1.0704,1.074,1.0759,1.0763,1.0768,1.0768,1.0773,1.0731,1.0723,1.0765,1.0765,1.0765,1.0765,1.0765,1.0765,1.0385,1.0422,1.0434,1.0482,1.0501,1.0537,1.0554,1.0577,1.0598,1.0643,1.0672,1.0688,1.0714,1.0752,1.0784,1.0791,1.0805,1.0811,1.0818,1.0779,1.0775,1.0771,1.0763,1.0813,1.0813,1.0857,1.0857,1.0857]},{"header":{"parameterUnit":"m.s-1","parameterCategory":1,"la1":30.2991,"la2":30.254,"lo1":-89.0895,"lo2":-89.0444,"dx":0.0017,"dy":0.0017,"nx":28,"ny":28,"refTime":"2023-01-10T15:00:00:Z","depth":0,"parameterNumber":3,"parameterNumberName":"V-component_of_WINDS"},"data":[0,0,0,0,0,0,0,0,0,0,0,0,0,0,0,0,0,0,0,0,0,0,0,0,0,0,0,0,0,0,0,0,0,0,0,0,0,0,0,0,0,0,0,0,0,0,0,0,0,0,0,0,0,0,0,0,0,0,3.1742,3.1742,0,3.1797,3.1797,3.1798,3.1808,3.1807,3.1807,3.1806,3.186,3.1861,3.1863,0,0,0,0,0,0,0,0,0,0,0,0,0,3.1644,3.1646,3.1741,3.1742,3.1743,3.1796,3.1797,3.1798,3.1808,3.1807,3.1807,3.1806,3.1859,3.1861,3.1863,0,0,0,0,0,0,0,0,0,0,0,0,0,3.1691,3.1646,3.1741,3.1754,3.1756,3.1796,3.1797,3.1798,3.1808,3.1807,3.1807,3.1806,3.1858,3.1861,3.1864,3.1894,0,0,3.1872,3.1873,0,0,0,0,0,0,0,0,3.1689,3.1695,3.1752,3.1754,3.1756,3.1795,3.1782,3.183,3.1808,3.1788,3.1806,3.1806,3.1838,3.1843,3.1854,3.1897,3.1899,3.1872,3.1874,3.1875,3.1876,0,0,0,0,0,0,0,3.1685,3.1693,3.1763,3.1753,3.1755,3.1757,3.1763,3.1792,3.1816,3.179,3.1791,3.1797,3.1839,3.1852,3.1856,3.19,3.1872,3.1875,3.1876,3.1878,3.1972,3.1973,0,0,0,0,0,0,3.168,3.169,3.1761,3.1765,3.172,3.1759,3.1766,3.1783,3.1816,3.182,3.1798,3.1797,3.1847,3.1853,3.1858,3.1897,3.1875,3.1878,3.1879,3.1971,3.1972,3.1973,0,0,0,0,0,0,3.1678,3.1686,3.1759,3.1728,3.1737,3.1762,3.178,3.1784,3.1797,3.1822,3.1826,3.1806,3.1847,3.1854,3.1886,3.1899,3.1879,3.1882,3.197,3.1972,3.1973,3.1976,0,0,0,0,0,0,3.1675,3.1686,3.1697,3.1728,3.1739,3.1787,3.1781,3.1786,3.1802,3.1802,3.1831,3.1835,3.1847,3.1882,3.1889,3.1903,3.1884,3.1969,3.1971,3.1972,3.1975,3.1977,3.1979,0,0,0,0,0,3.1672,3.1695,3.1698,3.1706,3.1754,3.1787,3.1794,3.1808,3.1803,3.1815,3.1832,3.1834,3.1897,3.1885,3.1893,3.1908,3.1968,3.197,3.1972,3.1974,3.1977,3.1979,0,0,0,0,0,0,3.1663,3.1699,3.1703,3.1737,3.1759,3.1789,3.1805,3.181,3.1834,3.1833,3.1849,3.1855,3.1887,3.19,3.1887,3.194,3.1932,3.1936,3.193,3.1933,3.1936,3.1932,3.1886,0,0,0,0,0,3.1666,3.1691,3.172,3.1747,3.1758,3.178,3.1795,3.1804,3.1828,3.1837,3.1856,3.1878,3.1903,3.1919,3.1943,3.1976,3.1984,3.1991,3.1993,3.1995,3.1998,3.2019,3.2023,3.198,3.198,3.198,0,0,3.167,3.1693,3.1707,3.1746,3.1764,3.179,3.1787,3.1814,3.1833,3.184,3.1873,3.1887,3.1913,3.1947,3.1963,3.1959,3.2012,3.1997,3.1998,3.2001,3.2022,3.2026,3.2029,3.1981,3.1981,3.198,0,0,3.1692,3.1711,3.1737,3.1757,3.1786,3.18,3.1806,3.1836,3.1847,3.188,3.1887,3.1909,3.1951,3.197,3.1985,3.2017,3.2021,3.2025,3.2037,3.2057,3.206,3.2064,3.2077,3.2081,3.2027,3.2027,3.2027,0,3.1694,3.1733,3.1749,3.1777,3.1794,3.1804,3.1831,3.1848,3.1883,3.1895,3.1891,3.1946,3.1963,3.2003,3.2011,3.2022,3.2031,3.2022,3.2059,3.2062,3.2065,3.2078,3.2083,3.2028,3.2028,3.2028,3.2028,0,3.1735,3.1763,3.178,3.1816,3.1835,3.1861,3.1882,3.1899,3.1907,3.1923,3.1957,3.1979,3.2009,3.2019,3.2026,3.206,3.2057,3.2056,3.2048,3.207,3.2082,3.2087,3.2028,3.2028,3.2028,3.2028,0,0,3.1752,3.1799,3.1805,3.1823,3.1857,3.1878,3.1905,3.1936,3.1952,3.1976,3.2,3.2036,3.2036,3.2053,3.2063,3.2081,3.2107,3.2077,3.2078,3.2084,3.2148,3.215,3.2156,3.211,3.2111,3.2111,3.2147,0,3.178,3.1831,3.1847,3.1889,3.1916,3.1927,3.1951,3.1974,3.199,3.2014,3.203,3.2057,3.2053,3.2064,3.2082,3.21,3.2121,3.2098,3.2133,3.2134,3.2128,3.2162,3.2163,3.2196,3.2151,3.2152,3.2153,0,3.1818,3.1845,3.1891,3.1924,3.1936,3.1957,3.1989,3.2011,3.2039,3.2049,3.2069,3.2078,3.2108,3.2098,3.214,3.2124,3.2139,3.215,3.2152,3.2157,3.2145,3.2169,3.2206,3.2212,3.216,3.216,3.2159,0,3.1828,3.1876,3.191,3.1925,3.1964,3.1979,3.1996,3.2023,3.2041,3.2068,3.208,3.2109,3.2125,3.2148,3.2164,3.2155,3.2205,3.2196,3.2215,3.2215,3.2225,3.2225,3.2267,3.2233,3.2233,3.2233,3.2233,0,3.1857,3.1885,3.1916,3.1937,3.1969,3.1988,3.2019,3.2036,3.206,3.2085,3.2095,3.2118,3.2139,3.2164,3.2177,3.2211,3.2217,3.2227,3.223,3.2227,3.2226,3.2238,3.2236,3.2234,3.2234,3.2234,3.2233,0,3.1874,3.1895,3.1934,3.1969,3.1979,3.2001,3.2031,3.2052,3.2068,3.21,3.2108,3.2134,3.2165,3.2184,3.2222,3.2231,3.2269,3.227,3.226,3.2262,3.228,3.2279,3.2333,3.2342,3.23,3.23,3.2301,0,3.1892,3.1914,3.1952,3.1971,3.1988,3.2017,3.2037,3.2056,3.2077,3.2111,3.2128,3.216,3.2187,3.2236,3.2258,3.2288,3.2292,3.2308,3.2296,3.2293,3.2294,3.2293,3.2296,3.2311,3.2311,3.2311,3.2312,0,3.1921,3.1932,3.1961,3.1994,3.2018,3.2044,3.2071,3.2085,3.2109,3.2131,3.2164,3.2185,3.2227,3.2259,3.2291,3.2308,3.2314,3.2315,3.2322,3.2319,3.2313,3.2318,3.2267,3.2314,3.2314,3.2314,3.2314,3.2313,3.194,3.1962,3.1993,3.2025,3.2048,3.2073,3.2096,3.2117,3.2145,3.2181,3.2191,3.2226,3.2254,3.2299,3.2317,3.2345,3.2342,3.235,3.2353,3.2355,3.2357,3.2308,3.235,3.235,3.235,3.235,3.235,0,3.1972,3.1994,3.2023,3.2062,3.2088,3.2093,3.2123,3.2144,3.2176,3.2202,3.223,3.2269,3.2301,3.2326,3.2359,3.2376,3.238,3.2384,3.2384,3.2388,3.2356,3.2348,3.2381,3.2381,3.2381,3.2381,3.2381,3.2381,3.1992,3.2029,3.2044,3.2093,3.2114,3.215,3.2167,3.2191,3.2213,3.2257,3.2284,3.2301,3.2328,3.2363,3.2393,3.24,3.2412,3.2416,3.2423,3.2393,3.239,3.2387,3.238,3.2418,3.2418,3.2453,3.2453,3.2454]}]]